Regional Weather Roundup
Issued by NWS Albany, NY

Home | Current Version | Previous Version | Text Only | Print | Product List | Glossary On
Versions: 1 2 3 4 5 6 7 8 9 10 11 12 13 14 15 16 17 18 19 20 21 22 23 24 25 26 27 28 29 30 31 32 33 34 35 36 37 38 39 40 41 42 43 44 45 46 47 48 49 50
000
ASUS41 KALY 181210
RWRALY

NEW YORK STATE HOURLY WEATHER ROUNDUP
NATIONAL WEATHER SERVICE ALBANY NY
700 AM EST THU DEC 18 2014

NOTE: "FAIR" INDICATES FEW OR NO CLOUDS BELOW 12,000 FEET WITH NO
SIGNIFICANT WEATHER AND/OR NO OBSTRUCTIONS TO VISIBILITY.

NYZ032-033-038>043-046>054-057>066-NYZ062>081-181300-
EAST


CITY           SKY/WX    TMP DP  RH WIND       PRES   REMARKS
ALBANY         FLURRIES  35  27  72 NW18      29.89R WCI  24
GLENS FALLS    CLOUDY    33  30  88 CALM      29.83R
POUGHKEEPSIE   CLOUDY    38  23  55 W8G18     29.91R WCI  32
NEWBURGH       MOCLDY    36  25  64 NW14G23   29.92R WCI  27
MONTGOMERY     CLOUDY    36  24  62 W14       29.93R WCI  27
WHITE PLAINS   MOCLDY    36  22  56 W17G23    29.91R WCI  26
ISLIP          PTCLDY    37  24  59 NW17      29.90R WCI  27
NEW YORK CITY  MOCLDY    38  24  57 NW23G29   29.95R WCI  27
CENTRAL PARK   CLOUDY    38  21  50 NW9G29    29.98R WCI  31
$$

NYZ005>009-017-018-044>046-055-056-181300-
CENTRAL


CITY           SKY/WX    TMP DP  RH WIND       PRES   REMARKS
FULTON         LGT SNOW  33  29  85 W14G21    29.97R FOG     WCI  23
SYRACUSE       CLOUDY    31  27  85 W21G29    29.98R WCI  18
ROME           LGT SNOW  31  28  89 W16G24    29.96R FOG     WCI  20
ELMIRA         CLOUDY    32  23  69 W12G24    30.02R WCI  23
BINGHAMTON     CLOUDY    28  22  78 W16G28    29.94R WCI  16
MONTICELLO     CLOUDY    30  25  80 W17G29    29.91R WCI  18
$$

NYZ026>034-041>043-181300-
NORTH


CITY           SKY/WX    TMP DP  RH WIND       PRES   REMARKS
WATERTOWN      CLOUDY    34  26  72 W14       29.96R WCI  25
FORT DRUM      NOT AVBL
MASSENA        LGT SNOW  32  30  92 W14       29.88R FOG     WCI  22
SARANAC LAKE   CLOUDY    29  25  85 W9G21     29.77R WCI  20
PLATTSBURGH    CLOUDY    33  33 100 CALM      29.80R
$$

NYZ001>004-010>016-019>021-181300-
WEST


CITY           SKY/WX    TMP DP  RH WIND       PRES   REMARKS
NIAGARA FALLS  CLOUDY    30  26  85 W15       30.07R WCI  19
BUFFALO        CLOUDY    30  24  78 W14       30.07R WCI  19
DUNKIRK        CLOUDY    32  26  78 W16G25    30.12R WCI  21
JAMESTOWN      CLOUDY    27  21  80 W10G17    30.07R WCI  17
WELLSVILLE     CLOUDY    26  21  81 W18G26    30.01R WCI  13
ROCHESTER      CLOUDY    32  26  78 W14       30.03R WCI  22
PENN YAN       CLOUDY    32  23  69 W13G23    30.01R WCI  22
$$

             KEY
       WCI = WIND CHILL INDEX
       VSB = VISIBILITY
       HX  = HEAT INDEX
$$


USA.gov is the U.S. government's official web portal to all federal, state and local government web resources and services.